Date,TemperatureHighF,TemperatureAvgF,TemperatureLowF,DewpointHighF,DewpointAvgF,DewpointLowF,HumidityHigh,HumidityAvg,HumidityLow,PressureMaxIn,PressureMinIn,WindSpeedMaxMPH,WindSpeedAvgMPH,GustSpeedMaxMPH,PrecipitationSumIn
2013-10-1,82,68,60,68,65,60,99,92,61,29.60,29.51,16,6,16,0.00
2013-10-2,81,70,62,75,68,61,99,94,67,29.65,29.56,11,3,11,0.00
2013-10-3,86,74,66,73,68,66,99,85,54,29.58,29.46,25,8,25,0.00
2013-10-4,87,73,65,75,70,65,99,89,57,29.59,29.51,19,6,19,0.00
2013-10-5,83,72,67,78,71,66,99,96,70,29.56,29.39,21,8,24,0.00
2013-10-6,67,59,48,67,54,41,99,85,52,29.42,29.28,21,8,21,0.00
2013-10-7,71,53,45,53,48,43,99,84,42,29.68,29.36,18,6,18,0.01
2013-10-8,78,60,47,58,50,46,99,75,38,29.79,29.68,11,4,11,0.00
2013-10-9,78,58,42,55,48,42,99,76,36,29.79,29.68,14,3,14,0.00
2013-10-10,50,48,47,49,48,46,99,99,96,29.70,29.68,1,0,1,0.00
2013-10-14,72,54,37,51,44,37,99,74,33,29.92,29.71,11,4,11,0.00
2013-10-15,72,59,48,72,58,46,99,96,79,29.71,29.42,20,8,20,0.00
2013-10-16,64,53,43,64,49,42,99,86,63,29.54,29.44,19,7,19,0.00
2013-10-17,56,46,39,50,44,39,99,94,64,29.53,29.44,24,6,24,0.00
2013-10-18,67,50,41,50,45,41,99,85,50,29.55,29.47,21,8,21,0.00
2013-10-19,57,46,39,48,41,36,99,83,46,29.54,29.42,22,7,22,0.00
2013-10-20,66,52,39,48,43,38,99,72,46,29.51,29.42,32,15,32,0.00
2013-10-21,55,48,34,50,43,29,96,82,66,29.57,29.44,24,9,24,0.00
2013-10-22,51,38,25,41,33,25,99,83,48,29.58,29.40,19,6,19,0.00
2013-10-23,50,40,33,41,35,33,99,85,62,29.61,29.39,18,6,19,0.00
2013-10-24,43,38,33,39,34,27,99,85,57,29.85,29.59,13,5,13,0.00
2013-10-25,52,39,28,35,30,27,98,72,43,30.00,29.77,18,7,18,0.00
2013-10-26,59,44,35,43,33,28,79,66,44,29.77,29.45,34,14,34,0.00
2013-10-27,59,42,27,43,32,27,99,72,35,29.66,29.57,17,4,17,0.00
2013-10-28,65,46,28,46,33,27,99,68,28,29.85,29.62,8,2,10,0.00
2013-10-29,60,47,35,50,42,33,99,82,57,29.89,29.72,11,5,11,0.00
2013-10-30,68,58,50,68,57,49,99,99,99,29.72,29.47,17,6,17,0.00
2013-10-31,73,62,51,73,61,51,99,99,99,29.47,28.86,36,17,36,0.00